Stations météo

réclame
Mon MeteoGroup
Carcassonne, France (7635): Température de l'air & dewpoint: 19.01.2020 04:00:00 - 25.01.2020 04:00:00 (CET)Carcassonne, France (7635): Température de l'air 5cm: 19.01.2020 04:00:00 - 25.01.2020 04:00:00 (CET)Carcassonne, France (7635): Température de l'air -20cm & Température de l'air -100cm: 19.01.2020 04:00:00 - 25.01.2020 04:00:00 (CET)Carcassonne, France (7635): Vitesse du vent & gusts: 19.01.2020 04:00:00 - 25.01.2020 04:00:00 (CET)Carcassonne, France (7635): Direction du vent: 19.01.2020 04:00:00 - 25.01.2020 04:00:00 (CET)Carcassonne, France (7635): reduced air pressure: 19.01.2020 04:00:00 - 25.01.2020 04:00:00 (CET)Carcassonne, France (7635): visibility: 19.01.2020 04:00:00 - 25.01.2020 04:00:00 (CET)Carcassonne, France (7635): Ensoleillement: 19.01.2020 04:00:00 - 25.01.2020 04:00:00 (CET)Carcassonne, France (7635): Quantités de précipitations: 19.01.2020 04:00:00 - 25.01.2020 04:00:00 (CET)
Date & Time tt [°C] td [°C] tt 5cm [°C] tt -20cm [°C] tt -100cm [°C] ff [km/h] ff [knt] fx [km/h] fx [knt] dd ppp [hPa] vv [km] sd [min] rr [mm]
25.01.2020 04:00:00 9,0 8,1 8,4 9,2 10,3 19 10 31 17 E 1020,9 28 0 0,0
25.01.2020 03:00:00 8,9 8,0 8,1 9,3 10,3 16 8 28 15 E 1021,3 19 0 0,0
25.01.2020 02:00:00 8,5 7,7 8,0 9,4 10,3 14 8 28 15 E 1021,4 11 0 0,0
25.01.2020 01:00:00 8,6 7,8 7,5 9,4 10,3 13 7 24 13 E 1021,7 15 0 0,0
25.01.2020 00:00:00 8,9 8,1 7,1 9,5 10,3 13 7 20 11 E 1022,2 10 0 0,0
24.01.2020 23:00:00 8,9 7,8 8,2 9,5 10,3 15 8 24 13 E 1022,4 11 0 0,0
24.01.2020 22:00:00 9,0 7,8 8,2 9,6 10,3 16 9 27 15 E 1022,4 12 0 0,0
24.01.2020 21:00:00 9,2 8,1 8,0 9,7 10,2 16 9 26 14 E 1022,2 12 0 0,0
24.01.2020 20:00:00 9,1 8,0 8,0 9,7 10,2 14 7 23 12 E 1022,2 14 0 0,0
24.01.2020 19:00:00 9,7 8,3 8,9 9,7 10,2 10 6 31 17 E 1021,9 16 0 0,0
24.01.2020 18:00:00 10,6 9,0 9,9 9,7 10,2 20 11 34 19 E 1021,0 18 24 0,0
24.01.2020 17:00:00 11,7 9,3 11,6 9,6 10,2 22 12 40 22 E 1021,0 37 48 0,0
24.01.2020 16:00:00 12,2 9,2 12,6 9,5 10,2 23 13 39 21 E 1020,9 37 16 0,0
24.01.2020 15:00:00 12,5 9,5 12,8 9,3 10,2 24 13 40 22 E 1020,8 39 30 0,0
24.01.2020 14:00:00 12,6 9,6 12,7 9,1 10,2 23 12 39 21 E 1021,1 30 20 0,0
24.01.2020 13:00:00 12,3 9,8 12,6 9,0 10,2 21 11 42 23 E 1021,6 18 12 0,0
24.01.2020 12:00:00 12,6 9,6 12,9 8,9 10,2 13 7 29 16 ESE 1021,9 16 50 0,0
24.01.2020 11:00:00 8,3 7,2 7,3 8,9 10,2 6 3 15 8 SSE 1022,1 19 19 0,0
24.01.2020 10:00:00 5,6 5,2 3,7 9,0 10,2 6 4 14 8 S 1022,0 12 0 0,0
24.01.2020 09:00:00 5,6 5,0 2,7 9,1 10,2 6 3 11 6 SSE 1021,8 6 0 0,0
24.01.2020 08:00:00 6,9 6,2 5,1 9,1 10,2 6 3 14 7 SE 1021,4 9 0 0,0
24.01.2020 07:00:00 9,1 8,3 8,2 9,2 10,2 8 4 21 11 ESE 1021,1 11 0 0,0
24.01.2020 06:00:00 10,0 9,4 9,2 9,2 10,2 9 5 20 11 ESE 1021,0 9 0 0,0
24.01.2020 05:00:00 10,2 9,3 9,7 9,2 10,2 11 6 24 13 E 1020,8 12 0 0,0
24.01.2020 04:00:00 10,3 9,4 9,8 9,2 10,1 10 5 31 17 ESE 1021,0 11 0 0,0
24.01.2020 03:00:00 10,6 9,7 9,9 9,2 10,2 17 9 32 17 E 1021,5 11 0 0,0
24.01.2020 02:00:00 10,8 9,9 10,2 9,2 10,2 16 9 30 16 E 1021,8 10 0 0,0
24.01.2020 01:00:00 10,9 9,8 10,3 9,2 10,1 19 10 38 20 E 1022,2 10 0 0,0
24.01.2020 00:00:00 11,0 10,1 10,3 9,2 10,1 18 10 33 18 E 1022,5 11 0 0,0
23.01.2020 23:00:00 10,8 9,9 9,6 9,2 10,2 13 7 35 19 E 1022,4 10 0 0,0
23.01.2020 22:00:00 11,1 9,7 10,5 9,2 10,1 19 11 34 19 E 1022,5 12 0 0,0
23.01.2020 21:00:00 11,5 9,6 10,3 9,2 10,2 22 12 38 20 E 1022,2 15 0 0,0
23.01.2020 20:00:00 11,3 9,9 10,4 9,2 10,2 23 12 35 19 ENE 1021,5 11 0 0,0
23.01.2020 19:00:00 11,3 9,9 10,3 9,1 10,2 18 10 36 19 E 1020,7 11 0 0,0
23.01.2020 18:00:00 12,0 10,7 11,1 9,0 10,2 23 12 47 25 E 1020,3 9 21 0,0
23.01.2020 17:00:00 12,8 11,2 12,7 8,9 10,2 30 16 52 28 E 1019,3 11 58 0,0
23.01.2020 16:00:00 12,8 11,0 12,6 8,7 10,2 33 18 49 27 E 1019,4 17 41 0,0
23.01.2020 15:00:00 12,1 10,3 11,2 8,6 10,2 34 19 54 29 E 1019,6 29 60 0,0
23.01.2020 14:00:00 10,4 9,6 9,2 8,5 10,2 30 16 48 26 E 1020,0 37 3 1,6
23.01.2020 13:00:00 9,7 8,9 8,9 8,5 10,1 22 12 34 18 E 1021,0 3,2 0 14,3
23.01.2020 12:00:00 10,0 9,4 9,4 8,4 10,1 23 13 48 26 E 1021,9 2,0 0 7,5
23.01.2020 11:00:00 9,6 9,0 8,7 8,4 10,1 28 15 49 27 E 1021,8 4,9 0 1,4
23.01.2020 10:00:00 9,2 8,4 8,1 8,4 10,1 27 14 63 34 E 1021,4 9 0 3,4
23.01.2020 09:00:00 9,2 7,6 8,2 8,4 10,2 33 18 63 34 E 1021,8 2,3 0 5,5
23.01.2020 08:00:00 10,3 7,5 9,3 8,3 10,2 36 19 64 35 E 1021,0 16 0 0,0
23.01.2020 07:00:00 10,1 7,7 8,9 8,3 10,1 30 16 63 34 E 1020,7 15 0 0,0
23.01.2020 06:00:00 10,0 7,1 9,2 8,3 10,1 35 19 65 35 E 1021,0 16 0 0,0
23.01.2020 05:00:00 10,2 6,7 9,4 8,3 10,2 31 17 62 33 E 1021,5 18 0 0,0
23.01.2020 04:00:00 10,1 6,2 8,6 8,2 10,1 29 16 60 32 E 1021,7 33 0 0,0
23.01.2020 03:00:00 10,0 6,9 8,6 8,2 10,2 30 16 56 30 E 1022,2 19 0 0,0
23.01.2020 02:00:00 9,9 7,5 8,5 8,2 10,2 26 14 47 25 E 1022,8 19 0 0,2
23.01.2020 01:00:00 9,8 7,4 8,7 8,2 10,3 26 14 54 29 E 1023,0 13 0 0,0
23.01.2020 00:00:00 9,7 7,8 8,7 8,1 10,2 32 17 59 32 E 1023,3 11 0 0,0
22.01.2020 23:00:00 9,7 7,8 8,5 8,1 10,2 32 17 63 34 E 1022,9 13 0 0,2
22.01.2020 22:00:00 9,6 8,4 8,8 8,0 10,3 39 21 62 33 E 1022,5 7 0 0,6
22.01.2020 21:00:00 9,7 8,8 8,8 8,0 10,3 33 18 59 32 E 1022,7 5 0 0,6
22.01.2020 20:00:00 9,5 8,7 8,8 7,9 10,3 40 21 69 37 E 1022,6 6 0 0,0
22.01.2020 19:00:00 9,7 8,8 8,9 7,9 10,3 40 21 69 37 E 1022,3 4,9 0 0,8
22.01.2020 18:00:00 9,5 8,7 8,8 7,8 10,3 45 24 71 39 E 1022,1 5 0 0,4
22.01.2020 17:00:00 9,3 8,5 8,8 7,7 10,3 38 20 64 34 E 1022,3 7 0 1,0
22.01.2020 16:00:00 9,4 8,8 8,8 7,6 10,3 32 17 62 34 E 1022,5 4,4 0 1,7
22.01.2020 15:00:00 9,2 8,6 8,4 7,6 10,3 40 21 63 34 E 1023,0 5 0 2,2
22.01.2020 14:00:00 8,8 8,0 7,9 7,5 10,3 27 15 51 28 E 1023,7 8 0 1,4
22.01.2020 13:00:00 8,3 7,7 7,7 7,5 10,4 15 8 44 24 E 1024,7 5 0 2,4
22.01.2020 12:00:00 8,1 7,5 7,3 7,4 10,4 29 15 44 24 E 1025,1 4,9 0 2,8
22.01.2020 11:00:00 7,7 6,9 7,3 7,4 10,4 17 9 45 24 ESE 1026,0 3,8 0 5,7
22.01.2020 10:00:00 7,8 7,2 7,1 7,4 10,4 19 10 44 24 E 1025,8 3,4 0 4,0
22.01.2020 09:00:00 7,6 6,8 7,1 7,3 10,4 19 10 42 23 E 1025,4 4,3 0 1,8
22.01.2020 08:00:00 7,7 6,9 7,0 7,3 10,4 23 13 44 24 E 1025,2 4,6 0 1,2
22.01.2020 07:00:00 7,5 6,8 6,4 7,3 10,4 29 16 48 26 E 1025,0 3,8 0 6,1
22.01.2020 06:00:00 7,1 6,0 6,0 7,3 10,4 14 8 40 21 ESE 1025,7 13 0 0,6
22.01.2020 05:00:00 7,0 5,0 5,7 7,3 10,4 19 10 46 25 E 1025,9 18 0 0,2
22.01.2020 04:00:00 6,7 4,5 5,4 7,3 10,4 14 8 38 20 E 1026,4 31 0 0,0
22.01.2020 03:00:00 6,6 4,4 5,4 7,3 10,4 22 12 41 22 E 1026,9 11 0 0,6
22.01.2020 02:00:00 6,7 4,0 5,5 7,3 10,4 22 12 49 26 E 1027,5 32 0 1,0
22.01.2020 01:00:00 8,5 2,1 7,7 7,3 10,4 23 12 46 25 E 1027,9 57 0 0,0
22.01.2020 00:00:00 8,6 2,6 7,4 7,3 10,4 24 13 46 25 E 1028,4 54 0 0,0
21.01.2020 23:00:00 8,2 3,4 6,4 7,3 10,4 21 11 49 26 E 1028,8 47 0 0,0
21.01.2020 22:00:00 8,5 3,5 6,9 7,3 10,4 21 12 40 21 E 1029,0 59 0 0,0
21.01.2020 21:00:00 7,6 4,5 6,3 7,3 10,4 18 10 44 24 E 1029,4 40 0 0,0
21.01.2020 20:00:00 8,0 4,2 6,8 7,3 10,5 20 11 37 20 E 1030,1 33 0 0,0
21.01.2020 19:00:00 8,7 3,5 7,6 7,3 10,5 19 11 40 22 E 1029,8 41 0 0,0
21.01.2020 18:00:00 8,9 3,3 7,6 7,2 10,4 21 11 43 23 E 1029,6 60 0 0,0
21.01.2020 17:00:00 9,1 3,1 8,5 7,2 10,5 24 13 44 24 E 1029,8 58 0 0,0
21.01.2020 16:00:00 8,8 3,4 7,7 7,1 10,5 17 9 40 22 E 1030,2 60 0 0,0
21.01.2020 15:00:00 8,6 3,8 7,2 7,0 10,5 23 12 40 22 E 1030,4 57 0 0,0
21.01.2020 14:00:00 7,9 4,3 6,6 6,9 10,5 19 11 40 21 E 1031,0 51 0 0,0
21.01.2020 13:00:00 7,2 4,3 6,1 6,9 10,5 16 9 41 22 ESE 1031,9 56 0 0,0
21.01.2020 12:00:00 6,6 4,4 5,6 6,8 10,5 15 8 39 21 SE 1032,5 36 0 0,0
21.01.2020 11:00:00 6,1 4,4 5,6 6,8 10,5 14 7 38 20 ESE 1032,9 53 0 0,0
21.01.2020 10:00:00 5,7 4,7 4,6 6,8 10,5 17 9 45 24 E 1032,9 20 7 0,0
21.01.2020 09:00:00 5,0 4,1 4,1 6,8 10,6 13 7 31 17 ESE 1033,3 19 0 0,4
21.01.2020 08:00:00 4,6 3,6 3,9 6,7 10,6 9 5 22 12 SE 1033,4 10 0 0,0
21.01.2020 07:00:00 4,3 3,3 3,6 6,8 10,6 6 4 18 10 SE 1033,5 15 0 0,0
21.01.2020 06:00:00 4,1 3,1 3,5 6,8 10,6 8 5 16 9 SSE 1033,9 11 0 0,0
21.01.2020 05:00:00 4,1 2,9 3,4 6,8 10,6 11 6 31 17 SE 1034,2 13 0 0,0
21.01.2020 04:00:00 3,9 2,4 3,1 6,8 10,6 12 6 26 14 SE 1034,8 28 0 0,0
21.01.2020 03:00:00 3,8 2,2 2,9 6,9 10,6 14 8 31 17 ESE 1035,3 23 0 0,0
21.01.2020 02:00:00 3,9 1,9 3,0 6,9 10,6 12 7 25 13 ESE 1035,7 19 0 0,0
21.01.2020 01:00:00 4,1 1,8 3,0 6,9 10,6 14 8 39 21 E 1036,1 20 0 0,0
21.01.2020 00:00:00 4,4 1,2 2,6 7,0 10,7 19 10 39 21 E 1036,4 19 0 0,0
20.01.2020 23:00:00 3,1 0,7 2,2 7,0 10,6 6 3 10 5 ESE 1036,3 17 0 0,0
20.01.2020 22:00:00 3,0 0,6 1,6 7,0 10,7 3 1 9 5 NE 1036,4 20 0 0,0
20.01.2020 21:00:00 3,0 0,1 1,3 7,1 10,7 3 2 8 4 SW 1036,2 29 0 0,0
20.01.2020 20:00:00 3,8 0,3 2,7 7,1 10,7 4 2 8 4 W 1036,0 25 0 0,0
20.01.2020 19:00:00 4,2 -0,4 3,5 7,0 10,7 5 3 12 6 W 1035,8 40 0 0,0
20.01.2020 18:00:00 4,4 0,0 3,8 7,0 10,7 8 5 16 8 SW 1035,1 39 0 0,0
20.01.2020 17:00:00 4,8 -0,4 4,6 6,9 10,7 10 6 18 10 W 1034,7 45 0 0,0
20.01.2020 16:00:00 5,0 0,0 4,7 6,9 10,7 9 5 17 9 W 1034,6 32 0 0,0
20.01.2020 15:00:00 4,7 -0,3 4,8 6,8 10,7 10 5 15 8 WNW 1035,1 43 0 0,0
20.01.2020 14:00:00 4,8 -0,4 5,7 6,6 10,7 9 5 16 9 NW 1035,6 56 0 0,0
20.01.2020 13:00:00 4,9 -0,5 5,1 6,5 10,7 11 6 23 12 WNW 1036,0 52 0 0,0
20.01.2020 12:00:00 4,2 -1,4 3,4 6,5 10,7 9 5 22 12 W 1036,3 60 0 0,0
20.01.2020 11:00:00 2,9 -2,0 3,1 6,5 10,8 14 8 27 14 W 1036,7 60 0 0,0
20.01.2020 10:00:00 2,4 -1,6 1,1 6,5 10,8 8 5 24 13 W 1036,4 60 0 0,0
20.01.2020 09:00:00 1,1 -2,1 0,5 6,6 10,8 10 6 20 11 W 1035,7 58 0 0,0
20.01.2020 08:00:00 0,6 -2,3 0,2 6,6 10,8 11 6 24 13 W 1035,3 50 0 0,0
20.01.2020 07:00:00 0,4 -2,2 -0,6 6,8 10,8 16 9 22 12 W 1034,6 56 0 0,0
20.01.2020 06:00:00 0,3 -2,4 -0,9 6,9 10,8 10 5 19 10 W 1034,5 60 0 0,0
20.01.2020 05:00:00 -0,1 -2,5 -1,4 7,0 10,8 10 5 22 12 W 1034,5 58 0 0,0
20.01.2020 04:00:00 0,6 -2,6 -0,4 7,2 10,8 14 8 30 16 W 1034,4 60 0 0,0
20.01.2020 03:00:00 1,8 -2,9 1,0 7,3 10,8 18 10 36 19 W 1034,4 60 0 0,0
20.01.2020 02:00:00 2,1 -3,0 1,3 7,5 10,8 17 9 38 21 W 1034,6 60 0 0,0
20.01.2020 01:00:00 2,2 -2,9 1,4 7,6 10,8 19 11 35 19 W 1034,5 59 0 0,0
20.01.2020 00:00:00 2,7 -3,0 1,9 7,8 10,8 23 12 39 21 W 1034,3 60 0 0,0
19.01.2020 23:00:00 3,3 -2,9 2,4 7,9 10,8 21 11 36 19 W 1033,8 60 0 0,0
19.01.2020 22:00:00 3,7 -2,7 2,7 8,1 10,8 18 10 34 18 W 1033,5 60 0 0,0
19.01.2020 21:00:00 4,0 -2,4 3,0 8,2 10,8 19 10 32 17 W 1033,1 60 0 0,0
19.01.2020 20:00:00 4,4 -2,5 3,3 8,4 10,8 15 8 27 15 W 1032,6 60 0 0,0
19.01.2020 19:00:00 5,6 -2,7 4,4 8,5 10,8 16 9 29 15 W 1031,8 60 0 0,0
19.01.2020 18:00:00 6,5 -2,9 5,2 8,5 10,7 18 10 33 18 W 1031,0 60 20 0,0
19.01.2020 17:00:00 8,1 -2,3 7,8 8,4 10,7 21 11 35 19 WNW 1030,3 60 44 0,0
19.01.2020 16:00:00 8,6 -1,8 8,1 8,3 10,7 22 12 37 20 WNW 1029,8 60 40 0,0
19.01.2020 15:00:00 10,2 -0,9 9,3 8,2 10,7 24 13 40 22 W 1029,2 60 41 0,0
19.01.2020 14:00:00 8,5 -1,3 9,1 8,0 10,7 23 12 42 23 W 1029,1 60 49 0,0
19.01.2020 13:00:00 8,7 -0,9 8,9 7,9 10,7 25 14 39 21 W 1029,5 60 28 0,0
19.01.2020 12:00:00 8,2 -1,1 6,9 7,9 10,7 26 14 42 23 W 1029,4 58 0 0,0
19.01.2020 11:00:00 6,6 -0,2 5,9 7,9 10,7 24 13 39 21 W 1029,1 56 0 0,0
19.01.2020 10:00:00 5,6 0,9 4,6 8,0 10,7 16 9 27 15 W 1028,1 60 0 0,0
19.01.2020 09:00:00 4,9 0,8 4,4 8,0 10,7 12 6 24 13 W 1027,3 60 0 0,0
19.01.2020 08:00:00 5,1 0,7 2,4 8,1 10,8 11 6 22 12 WSW 1026,5 30 0 0,0
19.01.2020 07:00:00 4,2 0,2 2,4 8,1 10,7 8 4 14 7 W 1025,8 60 0 0,0
19.01.2020 06:00:00 4,6 1,1 3,9 8,2 10,8 8 4 11 6 W 1025,2 60 0 0,0
19.01.2020 05:00:00 5,0 0,7 4,2 8,2 10,7 5 3 9 5 W 1024,8 60 0 0,0
19.01.2020 04:00:00 5,5 0,1 4,6 8,3 10,8 6 3 12 6 N 1024,3 60 0 0,0

tt = Température de l'air
td = dewpoint
tt 5cm = Température de l'air 5cm
tt -20cm = Température de l'air -20cm
tt -100cm = Température de l'air -100cm
ff = Vitesse du vent
fx = gusts
dd = Direction du vent
ppp = reduced air pressure
vv = visibility
sd = Ensoleillement
rr = Quantités de précipitations

stations d'obs. à proximité